User: anonymous   Login
Location: Unspecified
(0.0000°N, 0.0000°E)
Time: 19:56:46
(UTC+00:00)
Language:

UKube-1 - Orbit

View from above orbital plane
View from above orbital plane
View from above satellite
View from above satellite

Ground track
Ground track

The orbit data is extracted from the following two-line orbital elements,

1 40074U 14037F   17269.39633379  .00000406  00000-0  56434-4 0  9994
2 40074  98.3577  28.9229 0006068  86.7931 273.3981 14.83584673174185
Epoch (UTC): 26 September 2017 09:30:43
Eccentricity: 0.0006068
inclination: 98.3577°
perigee height: 614 km
apogee height: 622 km
right ascension of ascending node: 28.9229°
argument of perigee: 86.7931°
revolutions per day: 14.83584673
mean anomaly at epoch: 273.3981°
orbit number at epoch: 17418

The dashed part of the orbit path shows where the satellite is in the earth's shadow,  

DLR